Location: Melizzano
(41.1500°N, 14.5000°E)
Time: 03:27:55
(UTC+00:00)

ERS-2 - Pass Details

Date: 11 May 2021
Orbit: 491 x 496 km, 98.5° (Epoch: 14 June)

Event Time Altitude Azimuth Distance (km) Brightness Sun altitude
Rises 18:45:36 0° 10° (N) 2,580 6.1 -6.8°
Reaches altitude 10° 18:47:42 10° 7° (N) 1,692 5.2 -7.1°
Maximum altitude 18:51:17 64° 287° (WNW) 550 2.6 -7.7°
Drops below altitude 10° 18:54:52 10° 205° (SSW) 1,677 4.7 -8.3°
Sets 18:56:56 0° 202° (SSW) 2,554 5.6 -8.6°
